Regional Weather Roundup
Issued by NWS

Home | Current Version | Previous Version | Text Only | Print | Product List | Glossary Off
Versions: 1 2 3 4 5 6 7 8 9 10 11 12 13 14 15 16 17 18 19 20 21 22 23 24 25 26 27

000
ASUS45 KBOI 171910
RWRID
WEATHER ROUNDUP FOR IDAHO
NATIONAL WEATHER SERVICE BOISE ID
100 PM MDT THU APR 17 2014

NOTE: "FAIR" INDICATES FEW OR NO CLOUDS BELOW 12000 FEET
WITH NO SIGNIFICANT WEATHER AND/OR OBSTRUCTIONS TO VISIBILITY

IDZ012-014-172000-
SOUTHWEST IDAHO


CITY           SKY/WX    TMP DP  RH WIND       PRES   REMARKS
BOISE          SUNNY     67  26  21 SE17G25   29.86F
CALDWELL       SUNNY     68  30  24 SE16G24   29.86F
MOUNTAIN HOME  SUNNY     67  25  21 E16G22    29.88F
$$

IDZ016-017-172000-
SOUTHCENTRAL IDAHO


CITY           SKY/WX    TMP DP  RH WIND       PRES   REMARKS
BURLEY         SUNNY     64  26  23 SW8       29.93F
JEROME         SUNNY     62  25  24 E8        29.94F
TWIN FALLS     SUNNY     66  27  23 VRB6      29.92F
$$

IDZ019>023-172000-
SOUTHEAST IDAHO


CITY           SKY/WX    TMP DP  RH WIND       PRES   REMARKS
IDAHO FALLS    MOSUNNY   58  24  27 S14G24    29.98F
POCATELLO      SUNNY     61  23  23 VRB6      29.97F
REXBURG        SUNNY     55  21  26 S15G24    29.98F
$$

IDZ006-010-011-018-031-032-172000-
CENTRAL IDAHO MOUNTAINS


CITY           SKY/WX    TMP DP  RH WIND       PRES   REMARKS
MCCALL         CLOUDY    52  26  36 S13G18    29.88F
HAILEY         MOSUNNY   55  25  30 SE12      29.99F
STANLEY          N/A     43  21  41 N6        29.95F
SALMON         CLOUDY    57  25  28 SW15      29.86F
CHALLIS        PTSUNNY   57  21  24 SE7       29.89F
$$

IDZ002-004-006-007-026-172000-
NORTHERN IDAHO


CITY           SKY/WX    TMP DP  RH WIND       PRES   REMARKS
LEWISTON       CLOUDY    52  42  69 S5        29.84F
LOWELL           N/A     58  39  49 CALM      29.85F
COEUR D`ALENE  CLOUDY    48  45  87 S10       29.83F
MULLAN PASS    SNOW      32  32 100 VRB5      29.82S VSB 1/4 WCI  27
$$



USA.gov is the U.S. government's official web portal to all federal, state and local government web resources and services.